,,PressureMeas_1m,,PRMeasQMR101_1,,RHStat155_1m_1,,SRMeasQMS101R_1m,,TAStat155_1m_1,,GenWind_1,,GenWind_1,
2018-10-20, 00:00:06,VALID,920.102,VALID,0.0,VALID,97.951,VALID,-0.046,VALID,19.083,VALID,253.0,VALID,0.0,
2018-10-20, 00:01:06,VALID,920.061,VALID,0.0,VALID,97.31,VALID,-0.031,VALID,18.92,VALID,253.0,VALID,0.0,
2018-10-20, 00:02:06,VALID,920.052,VALID,0.0,VALID,96.735,VALID,-0.05,VALID,18.805,VALID,253.0,VALID,0.0,
2018-10-20, 00:03:06,VALID,920.015,VALID,0.0,VALID,96.763,VALID,-0.044,VALID,18.822,VALID,253.0,VALID,0.0,
2018-10-20, 00:04:06,VALID,919.996,VALID,0.0,VALID,97.296,VALID,-0.034,VALID,18.896,VALID,253.0,VALID,0.0,
2018-10-20, 00:05:06,VALID,920.01,VALID,0.0,VALID,97.398,VALID,-0.026,VALID,18.911,VALID,253.0,VALID,0.0,
2018-10-20, 00:06:06,VALID,920.012,VALID,0.0,VALID,97.566,VALID,-0.023,VALID,18.935,INVALID,360.0,VALID,0.0,
2018-10-20, 00:07:06,VALID,920.007,VALID,0.0,VALID,97.928,VALID,-0.024,VALID,19.031,VALID,116.0,VALID,0.0,
2018-10-20, 00:08:06,VALID,920.014,VALID,0.0,VALID,98.142,VALID,-0.025,VALID,19.07,VALID,116.0,VALID,0.0,
2018-10-20, 00:09:06,VALID,920.027,VALID,0.0,VALID,98.207,VALID,-0.023,VALID,19.066,VALID,116.0,VALID,0.0,
2018-10-20, 00:10:06,VALID,920.031,VALID,0.0,VALID,98.248,VALID,-0.023,VALID,19.051,VALID,116.0,VALID,0.0,
2018-10-20, 00:11:06,VALID,920.022,VALID,0.0,VALID,98.296,VALID,-0.032,VALID,19.054,VALID,116.0,VALID,0.0,
2018-10-20, 00:12:06,VALID,920.015,VALID,0.0,VALID,98.367,VALID,-0.04,VALID,19.07,VALID,116.0,VALID,0.0,
2018-10-20, 00:13:06,VALID,920.013,VALID,0.0,VALID,98.372,VALID,-0.037,VALID,19.081,VALID,116.0,VALID,0.0,
2018-10-20, 00:14:06,VALID,919.99,VALID,0.0,VALID,98.35,VALID,-0.017,VALID,19.073,VALID,116.0,VALID,0.0,
2018-10-20, 00:15:06,VALID,919.97,VALID,0.0,VALID,98.375,VALID,-0.029,VALID,19.084,VALID,116.0,VALID,0.0,
2018-10-20, 00:16:06,VALID,919.969,VALID,0.0,VALID,98.367,VALID,-0.053,VALID,19.086,VALID,116.0,VALID,0.0,
2018-10-20, 00:17:06,VALID,919.949,VALID,0.0,VALID,98.311,VALID,-0.025,VALID,19.077,VALID,116.0,VALID,0.0,
2018-10-20, 00:18:06,VALID,919.96,VALID,0.0,VALID,98.387,VALID,-0.045,VALID,19.112,VALID,116.0,VALID,0.0,
2018-10-20, 00:19:06,VALID,919.948,VALID,0.0,VALID,98.407,VALID,-0.03,VALID,19.129,VALID,116.0,VALID,0.0,
2018-10-20, 00:20:06,VALID,919.937,VALID,0.0,VALID,98.275,VALID,-0.024,VALID,19.077,VALID,91.0,VALID,0.0,
2018-10-20, 00:21:06,VALID,919.927,VALID,0.0,VALID,98.233,VALID,-0.036,VALID,19.025,VALID,54.0,VALID,0.0,
2018-10-20, 00:22:06,VALID,919.912,VALID,0.0,VALID,98.192,VALID,-0.043,VALID,18.974,VALID,54.0,VALID,0.0,
2018-10-20, 00:23:06,VALID,919.903,VALID,0.0,VALID,98.333,VALID,-0.039,VALID,19.003,VALID,54.0,VALID,0.0,
2018-10-20, 00:24:06,VALID,919.899,VALID,0.0,VALID,98.423,VALID,-0.002,VALID,19.043,VALID,54.0,VALID,0.0,
2018-10-20, 00:25:06,VALID,919.871,VALID,0.0,VALID,98.52,VALID,0.002,VALID,19.068,VALID,54.0,VALID,0.0,
2018-10-20, 00:26:06,VALID,919.845,VALID,0.0,VALID,98.581,VALID,-0.001,VALID,19.088,VALID,54.0,VALID,0.0,
2018-10-20, 00:27:06,VALID,919.829,VALID,0.0,VALID,98.586,VALID,-0.001,VALID,19.092,VALID,54.0,VALID,0.0,
2018-10-20, 00:28:06,VALID,919.797,VALID,0.0,VALID,98.571,VALID,0.008,VALID,19.065,VALID,54.0,VALID,0.0,
2018-10-20, 00:29:06,VALID,919.79,VALID,0.0,VALID,98.612,VALID,-0.015,VALID,19.106,VALID,54.0,VALID,0.0,
2018-10-20, 00:30:06,VALID,919.773,VALID,0.0,VALID,98.714,VALID,0.004,VALID,19.174,VALID,54.0,VALID,0.0,
2018-10-20, 00:31:06,VALID,919.766,VALID,0.0,VALID,98.736,VALID,0.01,VALID,19.221,VALID,54.0,VALID,0.0,
2018-10-20, 00:32:06,VALID,919.763,VALID,0.0,VALID,98.753,VALID,0.001,VALID,19.256,VALID,54.0,VALID,0.0,
2018-10-20, 00:33:06,VALID,919.761,VALID,0.0,VALID,98.747,VALID,0.008,VALID,19.254,VALID,54.0,VALID,0.0,
2018-10-20, 00:34:06,VALID,919.767,VALID,0.0,VALID,98.651,VALID,0.007,VALID,19.202,VALID,45.0,VALID,0.0,
2018-10-20, 00:35:06,VALID,919.801,VALID,0.0,VALID,98.62,VALID,0.001,VALID,19.182,VALID,4.0,VALID,0.0,
2018-10-20, 00:36:06,VALID,919.806,VALID,0.0,VALID,98.666,VALID,0.018,VALID,19.198,VALID,359.0,VALID,0.0,
2018-10-20, 00:37:06,VALID,919.787,VALID,0.0,VALID,98.569,VALID,-0.003,VALID,19.151,VALID,355.0,VALID,0.0,
2018-10-20, 00:38:06,VALID,919.775,VALID,0.0,VALID,98.511,VALID,-0.014,VALID,19.123,VALID,355.0,VALID,0.0,
2018-10-20, 00:39:06,VALID,919.759,VALID,0.0,VALID,98.593,VALID,0.038,VALID,19.151,VALID,355.0,VALID,0.0,
2018-10-20, 00:40:06,VALID,919.744,VALID,0.0,VALID,98.61,VALID,0.032,VALID,19.175,VALID,355.0,VALID,0.0,
2018-10-20, 00:41:06,VALID,919.729,VALID,0.0,VALID,98.56,VALID,0.029,VALID,19.146,VALID,7.0,VALID,0.0,
2018-10-20, 00:42:06,VALID,919.713,VALID,0.0,VALID,98.609,VALID,0.027,VALID,19.157,VALID,347.0,VALID,0.0,
2018-10-20, 00:43:06,VALID,919.702,VALID,0.0,VALID,98.616,VALID,0.016,VALID,19.184,VALID,4.0,VALID,0.0,
2018-10-20, 00:44:06,VALID,919.709,VALID,0.0,VALID,98.635,VALID,0.01,VALID,19.21,VALID,350.0,VALID,0.0,
2018-10-20, 00:45:06,VALID,919.71,VALID,0.0,VALID,98.642,VALID,0.02,VALID,19.242,VALID,335.0,VALID,0.0,
2018-10-20, 00:46:06,VALID,919.71,VALID,0.0,VALID,98.594,VALID,0.012,VALID,19.229,VALID,255.0,VALID,0.0,
2018-10-20, 00:47:06,VALID,919.722,VALID,0.0,VALID,98.596,VALID,0.015,VALID,19.246,INVALID,360.0,VALID,0.0,
2018-10-20, 00:48:06,VALID,919.73,VALID,0.0,VALID,98.604,VALID,0.009,VALID,19.271,INVALID,360.0,VALID,0.0,
2018-10-20, 00:49:06,VALID,919.749,VALID,0.0,VALID,98.625,VALID,0.011,VALID,19.309,INVALID,360.0,VALID,0.0,
2018-10-20, 00:50:06,VALID,919.748,VALID,0.0,VALID,98.638,VALID,0.026,VALID,19.337,INVALID,360.0,VALID,0.0,
2018-10-20, 00:51:07,VALID,919.767,VALID,0.0,VALID,98.669,VALID,-0.009,VALID,19.364,INVALID,360.0,VALID,0.0,
2018-10-20, 00:52:07,VALID,919.746,VALID,0.0,VALID,98.558,VALID,0.02,VALID,19.34,INVALID,360.0,VALID,0.0,
2018-10-20, 00:53:07,VALID,919.74,VALID,0.0,VALID,98.531,VALID,-0.0,VALID,19.322,INVALID,360.0,VALID,0.0,
2018-10-20, 00:54:07,VALID,919.721,VALID,0.0,VALID,98.578,VALID,-0.004,VALID,19.354,VALID,84.0,VALID,0.0,
2018-10-20, 00:55:07,VALID,919.688,VALID,0.0,VALID,98.476,VALID,0.008,VALID,19.32,VALID,41.0,VALID,0.0,
2018-10-20, 00:56:07,VALID,919.682,VALID,0.0,VALID,98.412,VALID,-0.003,VALID,19.289,VALID,27.0,VALID,0.0,
2018-10-20, 00:57:07,VALID,919.668,VALID,0.0,VALID,98.472,VALID,0.004,VALID,19.297,VALID,27.0,VALID,0.0,
2018-10-20, 00:58:07,VALID,919.663,VALID,0.0,VALID,98.527,VALID,0.008,VALID,19.309,VALID,14.0,VALID,0.0,
2018-10-20, 00:59:07,VALID,919.684,VALID,0.0,VALID,98.472,VALID,-0.03,VALID,19.261,VALID,20.0,VALID,0.0,
2018-10-20, 01:00:07,VALID,919.703,VALID,0.0,VALID,98.515,VALID,-0.018,VALID,19.242,VALID,1.0,VALID,0.0,
2018-10-20, 01:01:07,VALID,919.743,VALID,0.0,VALID,98.57,VALID,-0.018,VALID,19.255,VALID,357.0,VALID,0.0,
2018-10-20, 01:02:07,VALID,919.771,VALID,0.0,VALID,98.602,VALID,0.011,VALID,19.238,VALID,8.0,VALID,0.0,
2018-10-20, 01:03:07,VALID,919.794,VALID,0.0,VALID,98.597,VALID,-0.001,VALID,19.21,VALID,69.0,VALID,0.0,
2018-10-20, 01:04:07,VALID,919.798,VALID,0.0,VALID,98.605,VALID,0.008,VALID,19.183,VALID,73.0,VALID,0.0,
2018-10-20, 01:05:07,VALID,919.831,VALID,0.0,VALID,98.619,VALID,-0.005,VALID,19.179,VALID,69.0,VALID,0.0,
2018-10-20, 01:06:07,VALID,919.828,VALID,0.0,VALID,98.612,VALID,0.003,VALID,19.172,VALID,68.0,VALID,0.0,
2018-10-20, 01:07:07,VALID,919.837,VALID,0.0,VALID,98.642,VALID,0.001,VALID,19.179,VALID,104.0,VALID,0.0,
2018-10-20, 01:08:07,VALID,919.829,VALID,0.0,VALID,98.657,VALID,-0.004,VALID,19.186,VALID,111.0,VALID,0.0,
2018-10-20, 01:09:07,VALID,919.821,VALID,0.0,VALID,98.7,VALID,-0.021,VALID,19.195,VALID,103.0,VALID,0.0,
2018-10-20, 01:10:07,VALID,919.802,VALID,0.0,VALID,98.651,VALID,-0.037,VALID,19.194,VALID,103.0,VALID,0.0,
2018-10-20, 01:11:07,VALID,919.771,VALID,0.0,VALID,98.69,VALID,-0.031,VALID,19.214,VALID,102.0,VALID,0.0,
2018-10-20, 01:12:07,VALID,919.763,VALID,0.0,VALID,98.68,VALID,-0.035,VALID,19.227,VALID,102.0,VALID,0.0,
2018-10-20, 01:13:07,VALID,919.745,VALID,0.0,VALID,98.706,VALID,-0.044,VALID,19.244,VALID,103.0,VALID,0.0,
2018-10-20, 01:14:07,VALID,919.739,VALID,0.0,VALID,98.719,VALID,-0.036,VALID,19.274,VALID,103.0,VALID,0.0,
2018-10-20, 01:15:07,VALID,919.748,VALID,0.0,VALID,98.715,VALID,-0.02,VALID,19.303,INVALID,360.0,VALID,0.0,
2018-10-20, 01:16:07,VALID,919.748,VALID,0.0,VALID,98.669,VALID,-0.029,VALID,19.262,INVALID,360.0,VALID,0.0,
2018-10-20, 01:17:07,VALID,919.742,VALID,0.0,VALID,98.633,VALID,-0.052,VALID,19.252,INVALID,360.0,VALID,0.0,
2018-10-20, 01:18:07,VALID,919.74,VALID,0.0,VALID,98.599,VALID,-0.048,VALID,19.202,INVALID,360.0,VALID,0.0,
2018-10-20, 01:19:07,VALID,919.734,VALID,0.0,VALID,98.563,VALID,-0.047,VALID,19.182,INVALID,360.0,VALID,0.0,
2018-10-20, 01:20:07,VALID,919.726,VALID,0.0,VALID,98.557,VALID,-0.046,VALID,19.179,INVALID,360.0,VALID,0.0,
2018-10-20, 01:21:07,VALID,919.691,VALID,0.0,VALID,98.625,VALID,-0.033,VALID,19.219,INVALID,360.0,VALID,0.0,
2018-10-20, 01:22:07,VALID,919.708,VALID,0.0,VALID,98.601,VALID,-0.05,VALID,19.204,VALID,124.0,VALID,0.0,
2018-10-20, 01:23:07,VALID,919.717,VALID,0.0,VALID,98.587,VALID,-0.026,VALID,19.181,VALID,117.0,VALID,0.0,
2018-10-20, 01:24:07,VALID,919.706,VALID,0.0,VALID,98.601,VALID,0.041,VALID,19.19,VALID,107.0,VALID,0.0,
2018-10-20, 01:25:07,VALID,919.684,VALID,0.0,VALID,98.652,VALID,0.046,VALID,19.202,VALID,104.0,VALID,0.0,
2018-10-20, 01:26:07,VALID,919.657,VALID,0.0,VALID,98.676,VALID,0.048,VALID,19.222,VALID,91.0,VALID,0.0,
2018-10-20, 01:27:07,VALID,919.662,VALID,0.0,VALID,98.687,VALID,0.045,VALID,19.227,VALID,104.0,VALID,0.0,
2018-10-20, 01:28:07,VALID,919.618,VALID,0.0,VALID,98.674,VALID,0.04,VALID,19.198,VALID,123.0,VALID,0.0,
2018-10-20, 01:29:07,VALID,919.585,VALID,0.0,VALID,98.654,VALID,0.048,VALID,19.18,VALID,91.0,VALID,0.0,
2018-10-20, 01:30:07,VALID,919.551,VALID,0.0,VALID,98.678,VALID,0.054,VALID,19.171,VALID,81.0,VALID,0.0,
2018-10-20, 01:31:07,VALID,919.525,VALID,0.0,VALID,98.716,VALID,0.039,VALID,19.172,VALID,82.0,VALID,0.0,
2018-10-20, 01:32:07,VALID,919.507,VALID,0.0,VALID,98.679,VALID,0.06,VALID,19.122,VALID,87.0,VALID,0.0,
2018-10-20, 01:33:07,VALID,919.462,VALID,0.0,VALID,98.654,VALID,0.038,VALID,19.067,VALID,86.0,VALID,0.0,
2018-10-20, 01:34:07,VALID,919.434,VALID,0.0,VALID,98.654,VALID,0.052,VALID,19.036,VALID,78.0,VALID,0.0,
2018-10-20, 01:35:07,VALID,919.431,VALID,0.0,VALID,98.679,VALID,0.049,VALID,19.017,VALID,86.0,VALID,0.0,
2018-10-20, 01:36:07,VALID,919.396,VALID,0.0,VALID,98.704,VALID,0.039,VALID,18.998,VALID,88.0,VALID,0.0,
2018-10-20, 01:37:07,VALID,919.378,VALID,0.0,VALID,98.727,VALID,0.033,VALID,18.987,VALID,91.0,VALID,0.0,
2018-10-20, 01:38:07,VALID,919.342,VALID,0.0,VALID,98.765,VALID,0.044,VALID,18.975,VALID,91.0,VALID,0.0,
2018-10-20, 01:39:07,VALID,919.326,VALID,0.0,VALID,98.801,VALID,0.098,VALID,18.992,VALID,106.0,VALID,0.0,
2018-10-20, 01:40:07,VALID,919.309,VALID,0.0,VALID,98.854,VALID,0.088,VALID,18.996,VALID,95.0,VALID,0.0,
2018-10-20, 01:41:07,VALID,919.291,VALID,0.0,VALID,98.839,VALID,0.091,VALID,18.981,VALID,97.0,VALID,0.0,
2018-10-20, 01:42:07,VALID,919.275,VALID,0.0,VALID,98.877,VALID,0.097,VALID,18.982,VALID,88.0,VALID,0.0,
2018-10-20, 01:43:07,VALID,919.281,VALID,0.0,VALID,98.911,VALID,0.092,VALID,18.994,VALID,97.0,VALID,0.0,
2018-10-20, 01:44:07,VALID,919.261,VALID,0.0,VALID,98.917,VALID,0.083,VALID,18.999,VALID,96.0,VALID,0.0,
2018-10-20, 01:45:07,VALID,919.246,VALID,0.0,VALID,98.927,VALID,0.092,VALID,18.989,VALID,95.0,VALID,0.0,
2018-10-20, 01:46:07,VALID,919.247,VALID,0.0,VALID,98.907,VALID,0.099,VALID,18.951,VALID,101.0,VALID,0.0,
2018-10-20, 01:47:07,VALID,919.225,VALID,0.0,VALID,98.92,VALID,0.089,VALID,18.935,VALID,103.0,VALID,0.0,
2018-10-20, 01:48:07,VALID,919.205,VALID,0.0,VALID,98.98,VALID,0.091,VALID,18.936,VALID,105.0,VALID,0.0,
2018-10-20, 01:49:07,VALID,919.196,VALID,0.0,VALID,98.986,VALID,0.095,VALID,18.95,VALID,110.0,VALID,0.0,
2018-10-20, 01:50:07,VALID,919.199,VALID,0.0,VALID,98.984,VALID,0.1,VALID,18.961,VALID,108.0,VALID,0.0,
2018-10-20, 01:51:07,VALID,919.192,VALID,0.0,VALID,99.012,VALID,0.085,VALID,18.956,VALID,103.0,VALID,0.0,
2018-10-20, 01:52:07,VALID,919.181,VALID,0.0,VALID,99.002,VALID,0.093,VALID,18.951,VALID,118.0,VALID,0.0,
2018-10-20, 01:53:07,VALID,919.151,VALID,0.0,VALID,98.979,VALID,0.041,VALID,18.918,VALID,110.0,VALID,0.0,
2018-10-20, 01:54:07,VALID,919.145,VALID,0.0,VALID,99.008,VALID,-0.063,VALID,18.918,VALID,101.0,VALID,0.0,
2018-10-20, 01:55:07,VALID,919.11,VALID,0.0,VALID,99.019,VALID,-0.071,VALID,18.906,VALID,99.0,VALID,0.0,
2018-10-20, 01:56:07,VALID,919.094,VALID,0.0,VALID,99.038,VALID,-0.049,VALID,18.897,VALID,106.0,VALID,0.0,
2018-10-20, 01:57:07,VALID,919.054,VALID,0.0,VALID,98.997,VALID,-0.054,VALID,18.879,VALID,115.0,VALID,0.0,
2018-10-20, 01:58:07,VALID,919.028,VALID,0.0,VALID,99.039,VALID,-0.04,VALID,18.861,VALID,117.0,VALID,0.0,
2018-10-20, 01:59:07,VALID,919.002,VALID,0.0,VALID,99.037,VALID,-0.033,VALID,18.848,VALID,117.0,VALID,0.0,
2018-10-20, 02:00:07,VALID,918.98,VALID,0.0,VALID,99.026,VALID,-0.057,VALID,18.813,VALID,112.0,VALID,0.0,
2018-10-20, 02:01:07,VALID,918.97,VALID,0.0,VALID,99.038,VALID,-0.055,VALID,18.809,VALID,110.0,VALID,0.0,
2018-10-20, 02:02:07,VALID,918.928,VALID,0.0,VALID,99.065,VALID,-0.046,VALID,18.808,VALID,109.0,VALID,0.0,
2018-10-20, 02:03:07,VALID,918.896,VALID,0.0,VALID,99.065,VALID,-0.049,VALID,18.806,VALID,112.0,VALID,0.0,
2018-10-20, 02:04:07,VALID,918.865,VALID,0.0,VALID,99.082,VALID,-0.049,VALID,18.812,VALID,107.0,VALID,0.0,
2018-10-20, 02:05:07,VALID,918.864,VALID,0.0,VALID,99.08,VALID,-0.06,VALID,18.81,VALID,110.0,VALID,0.0,
2018-10-20, 02:06:07,VALID,918.842,VALID,0.0,VALID,99.105,VALID,-0.063,VALID,18.82,VALID,123.0,VALID,0.0,
2018-10-20, 02:07:07,VALID,918.819,VALID,0.0,VALID,99.128,VALID,-0.066,VALID,18.833,VALID,119.0,VALID,0.0,
2018-10-20, 02:08:07,VALID,918.817,VALID,0.0,VALID,99.113,VALID,-0.045,VALID,18.838,VALID,105.0,VALID,0.0,
2018-10-20, 02:09:07,VALID,918.789,VALID,0.0,VALID,99.118,VALID,0.01,VALID,18.812,VALID,109.0,VALID,0.0,
2018-10-20, 02:10:07,VALID,918.79,VALID,0.0,VALID,99.101,VALID,0.018,VALID,18.8,VALID,120.0,VALID,0.0,
2018-10-20, 02:11:07,VALID,918.785,VALID,0.0,VALID,99.097,VALID,-0.004,VALID,18.799,VALID,119.0,VALID,0.0,
2018-10-20, 02:12:07,VALID,918.774,VALID,0.0,VALID,99.118,VALID,0.022,VALID,18.788,VALID,130.0,VALID,0.0,
2018-10-20, 02:13:07,VALID,918.758,VALID,0.0,VALID,99.123,VALID,0.027,VALID,18.814,VALID,131.0,VALID,0.0,
2018-10-20, 02:14:07,VALID,918.752,VALID,0.0,VALID,99.128,VALID,0.027,VALID,18.812,VALID,120.0,VALID,0.0,
2018-10-20, 02:15:07,VALID,918.723,VALID,0.0,VALID,99.134,VALID,0.039,VALID,18.8,VALID,121.0,VALID,0.0,
2018-10-20, 02:16:07,VALID,918.694,VALID,0.0,VALID,99.124,VALID,0.034,VALID,18.79,VALID,112.0,VALID,0.0,
2018-10-20, 02:17:07,VALID,918.675,VALID,0.0,VALID,99.121,VALID,0.023,VALID,18.766,VALID,102.0,VALID,0.0,
2018-10-20, 02:18:07,VALID,918.654,VALID,0.0,VALID,99.135,VALID,0.051,VALID,18.752,VALID,107.0,VALID,0.0,
2018-10-20, 02:19:07,VALID,918.615,VALID,0.0,VALID,99.13,VALID,0.027,VALID,18.744,VALID,108.0,VALID,0.0,
2018-10-20, 02:20:07,VALID,918.596,VALID,0.0,VALID,99.16,VALID,0.026,VALID,18.743,VALID,110.0,VALID,0.0,
2018-10-20, 02:21:07,VALID,918.566,VALID,0.0,VALID,99.127,VALID,0.032,VALID,18.722,VALID,114.0,VALID,0.0,
2018-10-20, 02:22:07,VALID,918.553,VALID,0.0,VALID,99.127,VALID,0.023,VALID,18.713,VALID,109.0,VALID,0.0,
2018-10-20, 02:23:07,VALID,918.526,VALID,0.0,VALID,99.134,VALID,0.013,VALID,18.715,VALID,106.0,VALID,0.0,
2018-10-20, 02:24:07,VALID,918.505,VALID,0.0,VALID,99.149,VALID,0.011,VALID,18.717,VALID,96.0,VALID,0.0,
2018-10-20, 02:25:07,VALID,918.492,VALID,0.0,VALID,99.155,VALID,0.022,VALID,18.717,VALID,106.0,VALID,0.0,
2018-10-20, 02:26:07,VALID,918.483,VALID,0.0,VALID,99.147,VALID,0.004,VALID,18.716,VALID,104.0,VALID,0.0,
2018-10-20, 02:27:07,VALID,918.466,VALID,0.0,VALID,99.173,VALID,0.023,VALID,18.73,VALID,109.0,VALID,0.0,
2018-10-20, 02:28:07,VALID,918.451,VALID,0.0,VALID,99.182,VALID,0.022,VALID,18.737,VALID,105.0,VALID,0.0,
2018-10-20, 02:29:07,VALID,918.442,VALID,0.0,VALID,99.174,VALID,0.007,VALID,18.736,VALID,105.0,VALID,0.0,
2018-10-20, 02:30:07,VALID,918.447,VALID,0.0,VALID,99.16,VALID,0.007,VALID,18.731,VALID,90.0,VALID,0.0,
2018-10-20, 02:31:07,VALID,918.415,VALID,0.0,VALID,99.167,VALID,-0.007,VALID,18.728,VALID,98.0,VALID,0.0,
2018-10-20, 02:32:07,VALID,918.412,VALID,0.0,VALID,99.177,VALID,-0.008,VALID,18.716,VALID,106.0,VALID,0.0,
2018-10-20, 02:33:07,VALID,918.387,VALID,0.0,VALID,99.158,VALID,-0.0,VALID,18.702,VALID,107.0,VALID,0.0,
2018-10-20, 02:34:07,VALID,918.382,VALID,0.0,VALID,99.161,VALID,0.019,VALID,18.694,VALID,116.0,VALID,0.0,
2018-10-20, 02:35:07,VALID,918.357,VALID,0.0,VALID,99.166,VALID,0.014,VALID,18.677,VALID,122.0,VALID,0.0,
2018-10-20, 02:36:07,VALID,918.336,VALID,0.0,VALID,99.182,VALID,0.01,VALID,18.683,VALID,120.0,VALID,0.0,
2018-10-20, 02:37:07,VALID,918.318,VALID,0.0,VALID,99.184,VALID,0.003,VALID,18.707,INVALID,360.0,VALID,0.0,
2018-10-20, 02:38:07,VALID,918.307,VALID,0.0,VALID,99.215,VALID,-0.008,VALID,18.721,INVALID,360.0,VALID,0.0,
2018-10-20, 02:39:07,VALID,918.267,VALID,0.0,VALID,99.191,VALID,-0.015,VALID,18.72,INVALID,360.0,VALID,0.0,
2018-10-20, 02:40:07,VALID,918.27,VALID,0.0,VALID,99.187,VALID,0.01,VALID,18.705,INVALID,360.0,VALID,0.0,
2018-10-20, 02:41:07,VALID,918.235,VALID,0.0,VALID,99.187,VALID,-0.006,VALID,18.691,INVALID,360.0,VALID,0.0,
2018-10-20, 02:42:07,VALID,918.214,VALID,0.0,VALID,99.183,VALID,-0.01,VALID,18.68,INVALID,360.0,VALID,0.0,
2018-10-20, 02:43:07,VALID,918.197,VALID,0.0,VALID,99.188,VALID,-0.009,VALID,18.677,INVALID,360.0,VALID,0.0,
2018-10-20, 02:44:07,VALID,918.203,VALID,0.0,VALID,99.182,VALID,0.001,VALID,18.657,INVALID,360.0,VALID,0.0,
2018-10-20, 02:45:07,VALID,918.188,VALID,0.0,VALID,99.177,VALID,-0.014,VALID,18.64,INVALID,360.0,VALID,0.0,
2018-10-20, 02:46:07,VALID,918.185,VALID,0.0,VALID,99.193,VALID,-0.001,VALID,18.629,INVALID,360.0,VALID,0.0,
2018-10-20, 02:47:07,VALID,918.173,VALID,0.0,VALID,99.192,VALID,0.018,VALID,18.621,INVALID,360.0,VALID,0.0,
2018-10-20, 02:48:07,VALID,918.179,VALID,0.0,VALID,99.188,VALID,0.004,VALID,18.61,INVALID,360.0,VALID,0.0,
2018-10-20, 02:49:07,VALID,918.159,VALID,0.0,VALID,99.173,VALID,-0.009,VALID,18.598,VALID,145.0,VALID,0.0,
2018-10-20, 02:50:07,VALID,918.142,VALID,0.0,VALID,99.193,VALID,0.005,VALID,18.589,VALID,149.0,VALID,0.0,
2018-10-20, 02:51:07,VALID,918.144,VALID,0.0,VALID,99.191,VALID,0.024,VALID,18.595,VALID,143.0,VALID,0.0,
2018-10-20, 02:52:07,VALID,918.145,VALID,0.0,VALID,99.216,VALID,0.022,VALID,18.612,VALID,143.0,VALID,0.0,
2018-10-20, 02:53:07,VALID,918.147,VALID,0.0,VALID,99.215,VALID,0.007,VALID,18.606,VALID,151.0,VALID,0.0,
2018-10-20, 02:54:07,VALID,918.145,VALID,0.0,VALID,99.191,VALID,-0.005,VALID,18.59,VALID,151.0,VALID,0.0,
2018-10-20, 02:55:07,VALID,918.134,VALID,0.0,VALID,99.191,VALID,-0.009,VALID,18.572,VALID,142.0,VALID,0.0,
2018-10-20, 02:56:06,VALID,918.137,VALID,0.0,VALID,99.198,VALID,-0.012,VALID,18.565,VALID,106.0,VALID,0.0,
2018-10-20, 02:57:06,VALID,918.169,VALID,0.0,VALID,99.168,VALID,0.003,VALID,18.536,VALID,91.0,VALID,0.0,
2018-10-20, 02:58:06,VALID,918.179,VALID,0.0,VALID,99.17,VALID,-0.009,VALID,18.498,VALID,91.0,VALID,0.0,
2018-10-20, 02:59:06,VALID,918.222,VALID,0.0,VALID,99.165,VALID,0.022,VALID,18.476,VALID,91.0,VALID,0.0,
2018-10-20, 03:00:06,VALID,918.235,VALID,0.0,VALID,99.177,VALID,-0.001,VALID,18.463,VALID,91.0,VALID,0.0,
2018-10-20, 03:01:06,VALID,918.25,VALID,0.0,VALID,99.175,VALID,0.01,VALID,18.47,VALID,91.0,VALID,0.0,
2018-10-20, 03:02:06,VALID,918.278,VALID,0.0,VALID,99.184,VALID,0.001,VALID,18.448,VALID,92.0,VALID,0.0,
2018-10-20, 03:03:06,VALID,918.264,VALID,0.0,VALID,99.164,VALID,-0.014,VALID,18.4,VALID,93.0,VALID,0.0,
2018-10-20, 03:04:06,VALID,918.269,VALID,0.0,VALID,99.182,VALID,-0.014,VALID,18.391,VALID,101.0,VALID,0.0,
2018-10-20, 03:05:06,VALID,918.244,VALID,0.0,VALID,99.166,VALID,-0.003,VALID,18.367,VALID,87.0,VALID,0.0,
2018-10-20, 03:06:06,VALID,918.241,VALID,0.0,VALID,99.135,VALID,0.004,VALID,18.3,VALID,80.0,VALID,0.0,
2018-10-20, 03:07:06,VALID,918.227,VALID,0.0,VALID,99.144,VALID,-0.007,VALID,18.278,VALID,85.0,VALID,0.0,
2018-10-20, 03:08:06,VALID,918.228,VALID,0.0,VALID,99.148,VALID,-0.007,VALID,18.241,VALID,100.0,VALID,0.0,
2018-10-20, 03:09:06,VALID,918.198,VALID,0.0,VALID,99.18,VALID,0.036,VALID,18.296,VALID,101.0,VALID,0.0,
2018-10-20, 03:10:06,VALID,918.192,VALID,0.0,VALID,99.223,VALID,0.05,VALID,18.387,VALID,104.0,VALID,0.0,
2018-10-20, 03:11:06,VALID,918.193,VALID,0.0,VALID,99.209,VALID,0.033,VALID,18.384,VALID,103.0,VALID,0.0,
2018-10-20, 03:12:06,VALID,918.184,VALID,0.0,VALID,99.207,VALID,0.034,VALID,18.393,VALID,102.0,VALID,0.0,
2018-10-20, 03:13:06,VALID,918.201,VALID,0.0,VALID,99.206,VALID,0.045,VALID,18.411,VALID,108.0,VALID,0.0,
2018-10-20, 03:14:06,VALID,918.215,VALID,0.0,VALID,99.224,VALID,0.031,VALID,18.446,VALID,101.0,VALID,0.0,
2018-10-20, 03:15:06,VALID,918.201,VALID,0.0,VALID,99.238,VALID,0.036,VALID,18.476,VALID,107.0,VALID,0.0,
2018-10-20, 03:16:06,VALID,918.2,VALID,0.0,VALID,99.253,VALID,0.032,VALID,18.504,VALID,102.0,VALID,0.0,
2018-10-20, 03:17:06,VALID,918.156,VALID,0.0,VALID,99.242,VALID,0.049,VALID,18.519,VALID,98.0,VALID,0.0,
2018-10-20, 03:18:06,VALID,918.118,VALID,0.0,VALID,99.236,VALID,0.053,VALID,18.538,VALID,99.0,VALID,0.0,
2018-10-20, 03:19:06,VALID,918.094,VALID,0.0,VALID,99.246,VALID,0.043,VALID,18.558,VALID,106.0,VALID,0.0,
2018-10-20, 03:20:06,VALID,918.047,VALID,0.0,VALID,99.239,VALID,0.038,VALID,18.566,VALID,105.0,VALID,0.0,
2018-10-20, 03:21:06,VALID,918.022,VALID,0.0,VALID,99.229,VALID,0.049,VALID,18.557,VALID,93.0,VALID,0.0,
2018-10-20, 03:22:06,VALID,918.007,VALID,0.0,VALID,99.211,VALID,0.048,VALID,18.548,VALID,90.0,VALID,0.0,
2018-10-20, 03:23:06,VALID,917.991,VALID,0.0,VALID,99.237,VALID,0.027,VALID,18.533,VALID,93.0,VALID,0.0,
2018-10-20, 03:24:06,VALID,918.007,VALID,0.0,VALID,99.225,VALID,0.032,VALID,18.526,VALID,84.0,VALID,0.0,
2018-10-20, 03:25:06,VALID,917.99,VALID,0.0,VALID,99.236,VALID,0.038,VALID,18.526,VALID,74.0,VALID,0.0,
2018-10-20, 03:26:06,VALID,917.998,VALID,0.0,VALID,99.231,VALID,0.036,VALID,18.503,VALID,66.0,VALID,0.0,
2018-10-20, 03:27:06,VALID,918.013,VALID,0.0,VALID,99.216,VALID,0.032,VALID,18.492,VALID,73.0,VALID,0.0,
2018-10-20, 03:28:06,VALID,918.01,VALID,0.0,VALID,99.216,VALID,0.022,VALID,18.482,VALID,82.0,VALID,0.0,
2018-10-20, 03:29:06,VALID,918.028,VALID,0.0,VALID,99.224,VALID,0.018,VALID,18.474,VALID,86.0,VALID,0.0,
2018-10-20, 03:30:06,VALID,918.031,VALID,0.0,VALID,99.226,VALID,0.024,VALID,18.457,VALID,97.0,VALID,0.0,
2018-10-20, 03:31:06,VALID,918.014,VALID,0.0,VALID,99.223,VALID,0.028,VALID,18.448,VALID,93.0,VALID,0.0,
2018-10-20, 03:32:06,VALID,918.021,VALID,0.0,VALID,99.237,VALID,0.016,VALID,18.443,VALID,101.0,VALID,0.0,
2018-10-20, 03:33:06,VALID,918.001,VALID,0.0,VALID,99.232,VALID,0.02,VALID,18.44,VALID,85.0,VALID,0.0,
2018-10-20, 03:34:06,VALID,917.989,VALID,0.0,VALID,99.23,VALID,0.022,VALID,18.453,VALID,76.0,VALID,0.0,
2018-10-20, 03:35:06,VALID,917.977,VALID,0.0,VALID,99.26,VALID,0.021,VALID,18.468,VALID,76.0,VALID,0.0,
2018-10-20, 03:36:06,VALID,917.968,VALID,0.0,VALID,99.242,VALID,0.019,VALID,18.46,VALID,76.0,VALID,0.0,
2018-10-20, 03:37:06,VALID,917.962,VALID,0.0,VALID,99.236,VALID,0.025,VALID,18.445,VALID,76.0,VALID,0.0,
2018-10-20, 03:38:06,VALID,917.953,VALID,0.0,VALID,99.222,VALID,0.021,VALID,18.453,VALID,76.0,VALID,0.0,
2018-10-20, 03:39:06,VALID,917.952,VALID,0.0,VALID,99.241,VALID,-0.004,VALID,18.461,VALID,76.0,VALID,0.0,
2018-10-20, 03:40:06,VALID,917.979,VALID,0.0,VALID,99.265,VALID,0.007,VALID,18.477,VALID,105.0,VALID,0.0,
2018-10-20, 03:41:06,VALID,917.993,VALID,0.0,VALID,99.256,VALID,0.008,VALID,18.485,INVALID,360.0,VALID,0.0,
2018-10-20, 03:42:06,VALID,917.993,VALID,0.0,VALID,99.254,VALID,0.013,VALID,18.486,INVALID,360.0,VALID,0.0,